Погода в Косогорах

Россия / Республика Мордовия     54°12′43″N   45°46′46″E
темп.,
°C
ветер,
м/с
пор.,
м/с
влажн.,
%
обл.,
%
осадки,
мм/ч
давл.,
гПа
погр.,
м
7 марта, вс
вс700:00−12з129794 0.1 101321
03:00−15з229887 0.1 101320
06:00−16зюз239619 0.0 101320
09:00−12юз489425 0.0 1012263
12:00−8юз7118698 0.0 1010621
15:00−7ююз8148799 0.0 1006786
18:00−6ююз81594100 0.6 10021028
21:00−5юз101792100 1.9 9991079
8 марта, пн
пн800:00−4юз81691100 0.3 995840
03:00−3з91584100 0.8 994888
06:00−8зюз5129489 0.0 997415
09:00−8зюз7128895 0.1 1000520
12:00−5юз7118523 0.0 1000847
15:00−3зюз8129160 1.1 9991108
18:00−6зюз61482100 0.6 1001648
21:00−8зсз7129274 0.7 1005371
9 марта, вт
вт900:00−13з349647 0.0 100755
03:00−16з239723 0.0 100920
06:00−17зюз229854 0.0 101020
09:00−13зюз239476 0.0 1011166
12:00−10зсз238898 0.1 1011392
15:00−9сз349199 0.1 1011415
18:00−12ссз4795100 0.2 1012256
21:00−14ссз4895100 0.3 1014269
10 марта, ср
ср1000:00−18сз479891 0.1 1015148
03:00−20сз479994 0.1 1016136
06:00−20сз489899 0.1 1018233
09:00−20ссз589596 0.1 1020386
12:00−19сз5792100 0.0 1021527
15:00−19сз6891100 0.1 1022573
18:00−24сз489698 0.0 1024154
21:00−26сз349987 0.0 102661
11 марта, чт
чт1100:00−27сз2310098 0.0 102719
03:00−28зсз2310088 0.0 102819
06:00−28зсз2310068 0.0 102920
09:00−23зсз479774 0.0 1029235
12:00−18зсз589388 0.0 1029323
15:00−14зсз599294 0.1 1028528
18:00−15зсз4995100 0.1 1029212
21:00−17сз469893 0.1 1031102